Location: Boustaine
(50.3298°N, 4.1615°E)
Time: 03:14:02
(UTC+00:00)

Daily predictions for brighter satellites

Satellite Brightness Start Highest point End
(mag) Time Altitude Azimuth Time Altitude Azimuth Time Altitude Azimuth
CZ-4C R/B 3.8 00:06:34 33° N 00:06:34 33° N 00:11:33 10° NE
Cosmos 2369 Rocket 4.0 00:10:57 28° N 00:10:57 28° N 00:13:43 10° NNE
USA 234 4.1 00:02:50 10° ENE 00:17:11 - WNW 00:07:47 44° NE
ADEOS II 4.5 00:42:08 10° NE 00:44:28 15° ENE 00:44:28 15° ENE
Cosmos 2227 Rocket 3.8 00:51:12 10° NNW 00:54:07 30° N 00:54:07 30° N
SL-16 R/B 3.3 01:15:10 46° NNW 01:15:10 46° NNW 01:19:22 10° NNW
ATLAS 2AS CENTAUR R/B 4.5 01:12:25 10° NW 01:19:14 31° N 01:25:42 10° ENE
CZ-2D R/B 3.3 01:15:22 10° NNE 01:18:48 39° NE 01:18:48 39° NE
Cosmos 1943 Rocket 4.3 01:21:05 17° NW 01:21:20 17° NNW 01:24:54 10° N
Lacrosse 5 4.0 01:29:27 19° E 01:29:27 19° E 01:31:23 10° ENE
Resurs 1-4 Rocket 3.2 01:22:27 10° NNE 01:25:56 42° NNE 01:25:56 42° NNE
ATLAS 5 CENTAUR R/B 3.6 01:30:41 27° NE 01:30:41 27° NE 01:33:01 10° NE
Cosmos 1818 4.3 01:44:09 50° NE 01:44:09 50° NE 01:48:08 10° NE
Cosmos 2297 Rocket 4.2 01:37:50 10° NW 01:39:22 19° NW 01:39:22 19° NW
USA 234 3.4 01:45:12 10° ESE 01:51:41 70° NNE 01:55:07 30° NW
Cosmos 2369 Rocket 4.3 01:52:43 15° NW 01:53:36 16° NNW 01:57:00 10° N
CZ-4C R/B 4.4 01:51:44 14° NW 01:55:58 26° N 02:01:51 10° ENE
Cosmos 1821 Rocket 4.3 01:52:22 10° N 01:58:40 61° ENE 02:00:05 49° SE
CZ-4B R/B 4.1 01:54:25 10° NNE 01:58:43 55° ENE 01:58:43 55° ENE
Cosmos 1697 Rocket 3.3 02:01:35 49° ESE 02:01:35 49° ESE 02:06:50 10° NE
SL-24 R/B - RUBIN 2 4.4 02:05:39 85° WNW 02:05:42 85° NW 02:12:30 10° NE
NOSS 2-2 (C) 4.4 02:06:12 79° N 02:06:33 83° NE 02:14:00 10° SE
Cosmos 1980 Rocket 3.5 02:05:36 29° SE 02:06:39 31° ESE 02:11:34 10° NE
Cosmos 2263 Rocket 3.6 02:05:17 10° NNW 02:10:31 37° NE 02:15:45 10° ESE
Meteor 1-25 Rocket 4.3 02:08:22 10° N 02:14:13 74° ENE 02:14:52 66° SE
Gbstr 26 Del rocket 4.4 02:18:38 43° WNW 02:21:42 88° NNE 02:29:24 10° ESE
Cosmos 1328 Rocket 4.2 02:24:02 54° NE 02:24:02 54° NE 02:27:43 10° NNE
CZ-3B R/B 2.9 02:25:23 46° ENE 02:25:23 46° ENE 02:30:29 10° ENE
Cosmos 1151 Rocket 3.8 02:26:32 51° NNE 02:26:32 51° NNE 02:29:53 10° NNE
ADEOS II 2.0 02:20:20 10° NNE 02:25:24 82° N 02:25:24 82° N
USA 305 4.2 02:27:21 36° E 02:27:21 36° E 02:30:11 10° ENE
Nadezhda 3 Rocket 4.0 02:26:57 57° SSE 02:28:15 77° E 02:34:24 10° NNE
Cosmos 1933 Rocket 4.2 02:24:31 10° N 02:28:49 52° ENE 02:28:52 52° ENE
USA 306 4.0 02:31:23 40° E 02:31:23 40° E 02:34:24 10° ENE
ARIANE 5 R/B 3.0 02:25:27 10° NNE 02:30:28 54° E 02:31:22 47° SE
Cosmos 1656 3.7 02:32:28 61° NW 02:32:28 61° NW 02:37:49 10° NNE
IDEFIX/ARIANE 42P 3.4 02:29:46 10° NNE 02:34:53 47° E 02:36:52 32° SSE
IRS-1D 3.6 02:30:13 10° N 02:35:24 68° WNW 02:35:24 68° WNW
Meteor 1-14 Rocket 4.5 02:32:41 10° N 02:38:19 67° ENE 02:42:39 17° SSE
ASTEX 1 4.0 02:34:42 10° NNE 02:39:38 55° E 02:41:21 37° SSE
Cosmos 2227 Rocket 4.5 02:35:42 10° NW 02:35:52 11° NW 02:35:52 11° NW
CBERS-1 4.1 02:39:38 10° N 02:44:31 60° WNW 02:44:31 60° WNW
CZ-2D R/B 4.1 02:43:30 10° NNE 02:47:39 53° E 02:48:18 48° SE
IRS-1C 4.0 02:46:31 10° NNE 02:51:53 82° WNW 02:52:48 62° SSW
Meteor 1-20 Rocket 4.3 02:50:55 10° NNW 02:55:51 52° W 02:55:51 52° W
SL-16 R/B 4.3 03:00:15 15° WNW 03:00:15 15° WNW 03:01:50 10° NW
USA 307 2.9 02:57:59 74° SE 02:57:59 74° SE 03:02:06 10° ENE
USA 267 3.3 02:51:30 10° ENE 02:58:04 75° SE 03:00:27 43° SW
Cosmos 1238 Rocket 4.0 02:51:28 10° N 02:58:10 88° E 03:04:09 11° S
SJ 16-02 2.0 02:53:59 10° NNW 02:58:20 56° ENE 03:02:39 10° SE
CZ-2C R/B 3.9 02:55:25 10° NNE 02:59:00 40° E 03:00:12 31° SE
Cosmos 1782 2.8 02:59:09 83° NE 02:59:09 83° NE 03:03:06 10° N
CZ-2D R/B 3.4 02:56:05 10° N 03:00:07 25° NW 03:00:07 25° NW
Cosmos 44 3.6 02:59:36 44° SSE 03:00:27 50° ESE 03:04:59 10° NE
USA 308 2.8 03:01:02 78° SSE 03:01:02 78° SSE 03:05:18 10° ENE
Cosmos 389 Rocket 2.8 03:02:26 64° ENE 03:02:26 64° ENE 03:05:41 10° NNE
USA 276 3.4 03:04:24 40° E 03:04:24 40° E 03:06:36 10° E
Cosmos 2278 3.7 03:02:26 45° SSW 03:04:16 84° ESE 03:10:01 10° NNE
Resurs 1-4 Rocket 3.6 03:03:09 10° N 03:07:00 22° NW 03:07:00 22° NW
ATLAS CENTAUR R/B 4.1 02:54:12 10° WNW 03:08:24 55° N 03:13:40 10° E
Lacrosse 5 1.8 03:08:39 57° WSW 03:09:43 83° NNW 03:14:49 10° ENE
H-2A R/B 2.5 03:05:45 10° SSE 03:10:05 65° ENE 03:14:33 10° N
ERS-1 4.4 03:05:08 10° NNE 03:10:17 73° WNW 03:11:43 47° SW
ERBS 4.1 03:11:03 22° SE 03:11:15 23° SE 03:13:57 10° E
ATLAS 2AS CENTAUR R/B 3.6 03:04:26 10° NW 03:11:57 52° NNE 03:18:53 10° ESE
Cosmos 2369 3.8 03:11:30 46° WSW 03:13:02 63° WNW 03:18:46 10° NNE
ATLAS 5 CENTAUR R/B 3.4 03:12:12 19° NW 03:13:47 23° NNW 03:17:50 10° NE
SL-08 R/B 4.3 03:16:44 30° WNW 03:16:44 30° WNW 03:19:38 10° NNW
Meteor 1-11 Rocket 4.4 03:15:24 10° N 03:21:09 57° ENE 03:26:44 10° SSE
Landsat 5 3.6 03:18:11 10° SSE 03:22:43 86° ENE 03:27:13 10° NNW
Helios 1B 4.4 03:19:26 17° S 03:22:46 76° WSW 03:27:08 10° NNW
ADEOS Rocket 3.7 03:17:30 10° SE 03:24:01 57° ENE 03:29:55 10° N
CZ-4B R/B 3.8 03:22:22 10° ESE 03:25:01 24° ENE 03:27:42 10° N
Cosmos 972 4.3 03:25:29 34° SSW 03:27:38 81° WNW 03:32:33 10° NNE
Spot 4 Rocket 4.0 03:25:52 10° N 03:31:00 70° WNW 03:33:40 29° SSW
ERS-2 2.6 03:29:17 10° SSE 03:32:54 62° ENE 03:36:33 10° N
MSX 3.8 03:27:28 10° NNE 03:33:18 86° WNW 03:37:58 16° SSW
USA 234 3.3 03:28:30 10° SE 03:34:52 54° SW 03:41:16 10° WNW
Cosmos 2360 Rocket 4.4 03:36:18 10° SSE 03:40:43 24° ESE 03:45:07 10° NE
Cosmos 1536 3.7 03:37:18 10° N 03:41:18 51° ENE 03:45:17 10° SSE
Cosmos 1898 Rocket 3.5 03:36:14 10° NNW 03:41:31 90° ENE 03:46:48 10° SSE
CSL-04 DEB 4.5 03:37:18 10° S 03:41:35 64° WSW 03:45:58 10° NNW
X-37B 1.9 03:42:02 27° S 03:42:02 27° S 03:44:27 10° SE
Iridium 2 4.0 03:42:11 40° W 03:42:28 40° W 03:46:03 10° N
IRIDIUM 104 4.2 03:39:16 10° N 03:44:30 83° W 03:49:44 10° S
Cosmos 1697 Rocket 3.5 03:43:20 26° W 03:45:35 36° NW 03:50:45 10° NNE
BREEZE M DEB (TANK) 4.3 03:29:56 10° WNW 03:46:08 50° SW 03:50:53 10° SSE
CZ-4C R/B 4.0 03:40:03 10° NW 03:46:17 40° NNE 03:53:35 10° E
SL-8 R/B 4.4 03:45:53 30° SW 03:46:54 34° SSW 03:51:12 10° SE
Cosmos 1980 Rocket 2.4 03:47:24 26° WSW 03:50:25 53° NW 03:55:59 10° NNE
Cosmos 1515 Rocket 4.4 03:50:06 28° W 03:51:02 31° WNW 03:55:01 10° N
IRIDIUM 114 4.2 03:48:26 10° N 03:53:39 70° W 03:58:49 10° S
Cosmos 2263 Rocket 2.4 03:49:12 10° NW 03:54:36 48° WSW 04:00:01 10° S
Cosmos 1934 Rocket 4.5 03:49:40 10° NNW 03:55:03 35° W 03:59:39 14° SW
Cosmos 921 Rocket 2.9 03:52:49 24° SW 03:55:12 66° WNW 03:59:24 10° NNE
Cosmos 2322 Rocket 2.9 03:51:38 10° S 03:57:07 54° ESE 04:02:41 10° NE
USA 32 4.0 03:54:00 10° N 03:59:18 87° W 04:04:33 10° S
Cosmos 1844 Rocket 3.5 03:55:08 10° NNW 04:00:40 53° NE 04:06:12 10° SE
Cosmos 1500 3.8 03:57:54 10° NNW 04:01:23 33° W 04:03:18 21° SW
Cosmos 2173 Rocket 4.3 03:55:31 10° N 04:01:52 75° ENE 04:08:14 10° SSE
IRIDIUM 103 4.3 03:57:38 10° N 04:02:46 59° W 04:07:52 10° SSW
Cosmos 1812 2.8 04:01:20 19° SSW 04:03:53 52° WNW 04:07:40 10° N
Cosmos 1707 Rocket 3.6 04:00:00 10° S 04:04:19 81° E 04:08:42 10° NNE
ADEOS II 3.7 04:01:15 10° NNW 04:04:37 18° NW 04:06:19 15° WNW
USA 305 3.1 04:03:31 22° W 04:06:05 61° NNW 04:10:18 10° ENE
SL-16 R/B 2.4 04:00:35 10° SSW 04:06:13 74° ESE 04:11:54 10° NNE
Cosmos 1666 2.6 04:03:19 10° NNW 04:07:07 61° W 04:10:51 10° S
Cosmos 1937 Rocket 3.4 04:02:14 10° NNW 04:07:24 77° WSW 04:12:32 10° SSE
CZ-4C R/B 3.9 04:06:18 22° SW 04:07:36 28° W 04:10:44 10° NW
ARIANE 5 R/B 3.6 04:05:05 10° N 04:09:17 26° WNW 04:11:42 18° W
ADEOS 4.2 04:04:47 10° NNE 04:09:58 59° ESE 04:15:06 10° S
USA 306 3.2 04:07:32 21° W 04:10:18 60° NNW 04:14:31 10° ENE
IDEFIX/ARIANE 42P 3.5 04:09:42 10° N 04:14:18 31° WNW 04:17:39 16° WSW
Meteor 1-10 Rocket 4.4 04:10:49 10° SSW 04:16:32 60° WNW 04:22:24 10° N
CZ-2C R/B 2.5 04:13:34 10° N 04:18:39 70° WNW 04:23:48 10° SSW
Cosmos 1733 Rocket 3.0 04:14:46 10° N 04:19:10 86° W 04:23:30 10° S
Cosmos 841 Rocket 4.3 04:14:16 10° S 04:19:20 55° ESE 04:24:29 10° NNE
Cosmos 2228 Rocket 3.9 04:17:08 17° WSW 04:19:50 30° WNW 04:23:45 10° N
Cosmos 2061 Rocket 4.4 04:14:34 10° N 04:21:02 71° ENE 04:27:27 10° SSE
SAR-Lupe-4 3.5 04:18:13 10° SSE 04:21:49 82° WSW 04:25:27 10° NNW
Cosmos 1869 Rocket 4.5 04:22:14 10° NNW 04:25:52 26° W 04:29:29 10° SW
SL-4 R/B 3.4 04:21:40 10° SW 04:25:58 40° SSE 04:30:28 10° ENE
Cosmos 1763 Rocket 3.5 04:22:44 10° SSW 04:28:03 74° WNW 04:33:23 10° NNE
Cosmos 2016 Rocket 4.1 04:26:26 10° N 04:32:36 85° E 04:38:42 10° S
CZ-2C R/B 4.1 04:30:21 10° NNW 04:33:13 21° WNW 04:35:35 13° WSW
FALCON 9 DEB 4.3 04:30:22 10° SW 04:33:34 38° SSE 04:36:48 10° ENE
SAR-Lupe-1 4.0 04:30:28 10° S 04:34:00 62° WSW 04:37:34 10° NNW
SJ 16-02 2.7 04:33:26 10° NW 04:36:30 19° W 04:39:34 10° SW
Meteor 1-4 Rocket 3.4 04:33:52 10° SW 04:36:58 29° WNW 04:40:07 10° N
SJ-6F 4.4 04:33:07 10° N 04:37:14 70° WNW 04:41:18 10° SSW
Cosmos 1975 4.4 04:34:07 10° N 04:37:57 41° ENE 04:41:45 10° SE
USA 307 3.4 04:34:10 12° W 04:38:05 53° N 04:42:16 10° ENE
PSLV R/B 4.0 04:34:21 10° N 04:38:15 38° WNW 04:42:09 10° SW
Cosmos 1862 Rocket 3.6 04:34:06 10° S 04:38:29 90° ENE 04:42:52 10° N
NOSS 3-4 (A) 3.9 04:32:20 10° NW 04:39:11 64° SW 04:46:48 10° SSE
NOSS 3-4 (C) 3.9 04:32:26 10° NW 04:39:18 65° SW 04:46:55 10° SSE
Cosmos 1000 Rocket 4.5 04:33:22 10° SSW 04:39:33 80° W 04:45:45 10° N
USA 276 2.1 04:36:45 12° W 04:39:40 73° S 04:42:52 10° ESE
Cosmos 1570 Rocket 4.2 04:35:16 10° SSW 04:40:35 79° ESE 04:45:58 10° NNE
USA 267 3.6 04:34:36 10° ENE 04:41:01 59° NNW 04:47:24 10° W
USA 308 3.4 04:37:13 11° W 04:41:17 53° N 04:45:28 10° ENE
Cosmos 44 4.1 04:38:02 11° W 04:41:52 33° NW 04:46:13 10° NNE
BREEZE-M DEB (TANK) 3.5 04:36:25 10° WSW 04:42:23 35° S 04:45:00 10° ESE
PAYLOAD A 4.4 04:39:16 10° N 04:43:36 37° WNW 04:47:54 10° SW
BREEZE-M DEB (TANK) 3.6 04:40:44 11° WSW 04:43:50 78° SSE 04:53:50 10° E
Cosmos 1743 2.6 04:41:57 10° NNW 04:45:46 77° W 04:49:33 10° S
Cosmos 2333 Rocket 4.3 04:41:30 10° SSE 04:46:29 31° ESE 04:51:30 10° NE
H-2A R/B 3.6 04:43:39 10° SW 04:46:31 17° W 04:49:25 10° NW
ERBS 2.4 04:43:59 10° WSW 04:47:16 63° NNW 04:50:37 10° NE
NOSS 3-3 (A) 4.3 04:44:27 10° WSW 04:50:19 54° NW 04:57:03 10° NE
NOSS 3-3 (C) 4.3 04:44:37 10° WSW 04:50:25 54° NW 04:57:07 10° NE
Cosmos 1725 Rocket 4.0 04:46:03 10° N 04:52:16 84° W 04:58:27 10° S
Lacrosse 5 2.7 04:48:21 10° W 04:53:11 41° N 04:58:00 10° ENE
Cosmos 540 Rocket 3.5 04:50:11 10° SSW 04:55:21 80° WNW 05:00:35 10° NNE
CZ-4B R/B 2.4 04:54:38 10° SSW 04:57:14 23° W 04:59:55 10° NW
Cosmos 2100 Rocket 4.4 04:52:27 10° NNW 04:58:27 44° W 05:04:24 10° SSW
ATLAS 5 CENTAUR R/B 4.0 04:56:31 10° NW 05:00:08 20° N 05:04:09 10° NE
ALOS 2.3 04:56:32 10° N 05:01:11 65° WNW 05:05:47 10° SSW
ATLAS 2AS CENTAUR R/B 3.0 04:55:47 10° NW 05:03:06 56° WSW 05:09:48 10° SSE
